Index of /20260428/WXO-DD/model_rdps/10km/06/030
Name Last modified Size Description
Parent Directory -
20260428T06Z_MSC_RDPS_AbsoluteVorticity_IsbL-0250_RLatLon0.09_PT030H.grib2 2026-04-28 08:48 629K
20260428T06Z_MSC_RDPS_AbsoluteVorticity_IsbL-0500_RLatLon0.09_PT030H.grib2 2026-04-28 08:48 575K
20260428T06Z_MSC_RDPS_AbsoluteVorticity_IsbL-0700_RLatLon0.09_PT030H.grib2 2026-04-28 08:48 616K
20260428T06Z_MSC_RDPS_AbsoluteVorticity_IsbL-0850_RLatLon0.09_PT030H.grib2 2026-04-28 08:48 777K
20260428T06Z_MSC_RDPS_AirTemp_AGL-120m_RLatLon0.09_PT030H.grib2 2026-04-28 08:48 379K
20260428T06Z_MSC_RDPS_AirTemp_AGL-2m_RLatLon0.09_PT030H.grib2 2026-04-28 08:48 624K
20260428T06Z_MSC_RDPS_AirTemp_AGL-40m_RLatLon0.09_PT030H.grib2 2026-04-28 08:48 396K
20260428T06Z_MSC_RDPS_AirTemp_AGL-80m_RLatLon0.09_PT030H.grib2 2026-04-28 08:48 387K
20260428T06Z_MSC_RDPS_AirTemp_IsbL-0001_RLatLon0.09_PT030H.grib2 2026-04-28 08:48 265K
20260428T06Z_MSC_RDPS_AirTemp_IsbL-0005_RLatLon0.09_PT030H.grib2 2026-04-28 08:48 295K
20260428T06Z_MSC_RDPS_AirTemp_IsbL-0010_RLatLon0.09_PT030H.grib2 2026-04-28 08:48 305K
20260428T06Z_MSC_RDPS_AirTemp_IsbL-0020_RLatLon0.09_PT030H.grib2 2026-04-28 08:48 319K
20260428T06Z_MSC_RDPS_AirTemp_IsbL-0030_RLatLon0.09_PT030H.grib2 2026-04-28 08:48 341K
20260428T06Z_MSC_RDPS_AirTemp_IsbL-0050_RLatLon0.09_PT030H.grib2 2026-04-28 08:48 318K
20260428T06Z_MSC_RDPS_AirTemp_IsbL-0100_RLatLon0.09_PT030H.grib2 2026-04-28 08:48 432K
20260428T06Z_MSC_RDPS_AirTemp_IsbL-0150_RLatLon0.09_PT030H.grib2 2026-04-28 08:48 430K
20260428T06Z_MSC_RDPS_AirTemp_IsbL-0175_RLatLon0.09_PT030H.grib2 2026-04-28 08:48 417K
20260428T06Z_MSC_RDPS_AirTemp_IsbL-0200_RLatLon0.09_PT030H.grib2 2026-04-28 08:48 421K
20260428T06Z_MSC_RDPS_AirTemp_IsbL-0225_RLatLon0.09_PT030H.grib2 2026-04-28 08:48 423K
20260428T06Z_MSC_RDPS_AirTemp_IsbL-0250_RLatLon0.09_PT030H.grib2 2026-04-28 08:48 433K
20260428T06Z_MSC_RDPS_AirTemp_IsbL-0275_RLatLon0.09_PT030H.grib2 2026-04-28 08:48 415K
20260428T06Z_MSC_RDPS_AirTemp_IsbL-0300_RLatLon0.09_PT030H.grib2 2026-04-28 08:48 422K
20260428T06Z_MSC_RDPS_AirTemp_IsbL-0350_RLatLon0.09_PT030H.grib2 2026-04-28 08:48 432K
20260428T06Z_MSC_RDPS_AirTemp_IsbL-0400_RLatLon0.09_PT030H.grib2 2026-04-28 08:48 432K
20260428T06Z_MSC_RDPS_AirTemp_IsbL-0450_RLatLon0.09_PT030H.grib2 2026-04-28 08:48 401K
20260428T06Z_MSC_RDPS_AirTemp_IsbL-0500_RLatLon0.09_PT030H.grib2 2026-04-28 08:48 410K
20260428T06Z_MSC_RDPS_AirTemp_IsbL-0550_RLatLon0.09_PT030H.grib2 2026-04-28 08:48 427K
20260428T06Z_MSC_RDPS_AirTemp_IsbL-0600_RLatLon0.09_PT030H.grib2 2026-04-28 08:48 442K
20260428T06Z_MSC_RDPS_AirTemp_IsbL-0650_RLatLon0.09_PT030H.grib2 2026-04-28 08:48 457K
20260428T06Z_MSC_RDPS_AirTemp_IsbL-0700_RLatLon0.09_PT030H.grib2 2026-04-28 08:48 483K
20260428T06Z_MSC_RDPS_AirTemp_IsbL-0750_RLatLon0.09_PT030H.grib2 2026-04-28 08:48 408K
20260428T06Z_MSC_RDPS_AirTemp_IsbL-0800_RLatLon0.09_PT030H.grib2 2026-04-28 08:48 453K
20260428T06Z_MSC_RDPS_AirTemp_IsbL-0850_RLatLon0.09_PT030H.grib2 2026-04-28 08:48 507K
20260428T06Z_MSC_RDPS_AirTemp_IsbL-0875_RLatLon0.09_PT030H.grib2 2026-04-28 08:48 524K
20260428T06Z_MSC_RDPS_AirTemp_IsbL-0900_RLatLon0.09_PT030H.grib2 2026-04-28 08:48 530K
20260428T06Z_MSC_RDPS_AirTemp_IsbL-0925_RLatLon0.09_PT030H.grib2 2026-04-28 08:48 526K
20260428T06Z_MSC_RDPS_AirTemp_IsbL-0950_RLatLon0.09_PT030H.grib2 2026-04-28 08:48 528K
20260428T06Z_MSC_RDPS_AirTemp_IsbL-0970_RLatLon0.09_PT030H.grib2 2026-04-28 08:48 520K
20260428T06Z_MSC_RDPS_AirTemp_IsbL-0985_RLatLon0.09_PT030H.grib2 2026-04-28 08:48 506K
20260428T06Z_MSC_RDPS_AirTemp_IsbL-1000_RLatLon0.09_PT030H.grib2 2026-04-28 08:48 490K
20260428T06Z_MSC_RDPS_AirTemp_IsbL-1015_RLatLon0.09_PT030H.grib2 2026-04-28 08:48 489K
20260428T06Z_MSC_RDPS_Albedo_Sfc_RLatLon0.09_PT030H.grib2 2026-04-28 08:48 155K
20260428T06Z_MSC_RDPS_CAPE_Sfc_RLatLon0.09_PT030H.grib2 2026-04-28 08:48 1.6M
20260428T06Z_MSC_RDPS_CIN_Sfc_RLatLon0.09_PT030H.grib2 2026-04-28 08:48 1.1M
20260428T06Z_MSC_RDPS_CloudWater_EAtm_RLatLon0.09_PT030H.grib2 2026-04-28 08:48 218K
20260428T06Z_MSC_RDPS_ConvectivePrecip-Accum_Sfc_RLatLon0.09_PT030H.grib2 2026-04-28 08:48 911K
20260428T06Z_MSC_RDPS_DewPointDepression_AGL-2m_RLatLon0.09_PT030H.grib2 2026-04-28 08:48 395K
20260428T06Z_MSC_RDPS_DewPointDepression_IsbL-0001_RLatLon0.09_PT030H.grib2 2026-04-28 08:48 193
20260428T06Z_MSC_RDPS_DewPointDepression_IsbL-0005_RLatLon0.09_PT030H.grib2 2026-04-28 08:48 193
20260428T06Z_MSC_RDPS_DewPointDepression_IsbL-0010_RLatLon0.09_PT030H.grib2 2026-04-28 08:48 193
20260428T06Z_MSC_RDPS_DewPointDepression_IsbL-0020_RLatLon0.09_PT030H.grib2 2026-04-28 08:48 193
20260428T06Z_MSC_RDPS_DewPointDepression_IsbL-0030_RLatLon0.09_PT030H.grib2 2026-04-28 08:48 193
20260428T06Z_MSC_RDPS_DewPointDepression_IsbL-0050_RLatLon0.09_PT030H.grib2 2026-04-28 08:48 86K
20260428T06Z_MSC_RDPS_DewPointDepression_IsbL-0100_RLatLon0.09_PT030H.grib2 2026-04-28 08:48 133K
20260428T06Z_MSC_RDPS_DewPointDepression_IsbL-0150_RLatLon0.09_PT030H.grib2 2026-04-28 08:48 147K
20260428T06Z_MSC_RDPS_DewPointDepression_IsbL-0175_RLatLon0.09_PT030H.grib2 2026-04-28 08:48 174K
20260428T06Z_MSC_RDPS_DewPointDepression_IsbL-0200_RLatLon0.09_PT030H.grib2 2026-04-28 08:48 213K
20260428T06Z_MSC_RDPS_DewPointDepression_IsbL-0225_RLatLon0.09_PT030H.grib2 2026-04-28 08:48 262K
20260428T06Z_MSC_RDPS_DewPointDepression_IsbL-0250_RLatLon0.09_PT030H.grib2 2026-04-28 08:48 300K
20260428T06Z_MSC_RDPS_DewPointDepression_IsbL-0275_RLatLon0.09_PT030H.grib2 2026-04-28 08:48 309K
20260428T06Z_MSC_RDPS_DewPointDepression_IsbL-0300_RLatLon0.09_PT030H.grib2 2026-04-28 08:48 329K
20260428T06Z_MSC_RDPS_DewPointDepression_IsbL-0350_RLatLon0.09_PT030H.grib2 2026-04-28 08:48 333K
20260428T06Z_MSC_RDPS_DewPointDepression_IsbL-0400_RLatLon0.09_PT030H.grib2 2026-04-28 08:48 343K
20260428T06Z_MSC_RDPS_DewPointDepression_IsbL-0450_RLatLon0.09_PT030H.grib2 2026-04-28 08:48 348K
20260428T06Z_MSC_RDPS_DewPointDepression_IsbL-0500_RLatLon0.09_PT030H.grib2 2026-04-28 08:48 356K
20260428T06Z_MSC_RDPS_DewPointDepression_IsbL-0550_RLatLon0.09_PT030H.grib2 2026-04-28 08:48 364K
20260428T06Z_MSC_RDPS_DewPointDepression_IsbL-0600_RLatLon0.09_PT030H.grib2 2026-04-28 08:48 372K
20260428T06Z_MSC_RDPS_DewPointDepression_IsbL-0650_RLatLon0.09_PT030H.grib2 2026-04-28 08:48 375K
20260428T06Z_MSC_RDPS_DewPointDepression_IsbL-0700_RLatLon0.09_PT030H.grib2 2026-04-28 08:48 387K
20260428T06Z_MSC_RDPS_DewPointDepression_IsbL-0750_RLatLon0.09_PT030H.grib2 2026-04-28 08:48 407K
20260428T06Z_MSC_RDPS_DewPointDepression_IsbL-0800_RLatLon0.09_PT030H.grib2 2026-04-28 08:48 438K
20260428T06Z_MSC_RDPS_DewPointDepression_IsbL-0850_RLatLon0.09_PT030H.grib2 2026-04-28 08:48 467K
20260428T06Z_MSC_RDPS_DewPointDepression_IsbL-0875_RLatLon0.09_PT030H.grib2 2026-04-28 08:48 467K
20260428T06Z_MSC_RDPS_DewPointDepression_IsbL-0900_RLatLon0.09_PT030H.grib2 2026-04-28 08:48 456K
20260428T06Z_MSC_RDPS_DewPointDepression_IsbL-0925_RLatLon0.09_PT030H.grib2 2026-04-28 08:48 446K
20260428T06Z_MSC_RDPS_DewPointDepression_IsbL-0950_RLatLon0.09_PT030H.grib2 2026-04-28 08:48 443K
20260428T06Z_MSC_RDPS_DewPointDepression_IsbL-0970_RLatLon0.09_PT030H.grib2 2026-04-28 08:48 434K
20260428T06Z_MSC_RDPS_DewPointDepression_IsbL-0985_RLatLon0.09_PT030H.grib2 2026-04-28 08:48 429K
20260428T06Z_MSC_RDPS_DewPointDepression_IsbL-1000_RLatLon0.09_PT030H.grib2 2026-04-28 08:48 426K
20260428T06Z_MSC_RDPS_DewPointDepression_IsbL-1015_RLatLon0.09_PT030H.grib2 2026-04-28 08:48 420K
20260428T06Z_MSC_RDPS_DewPoint_AGL-2m_RLatLon0.09_PT030H.grib2 2026-04-28 08:48 399K
20260428T06Z_MSC_RDPS_DownwardLongwaveRadiationFlux-Accum_Sfc_RLatLon0.09_PT030H.grib2 2026-04-28 08:48 475K
20260428T06Z_MSC_RDPS_DownwardShortwaveRadiationFlux-Accum_NTAtm_RLatLon0.09_PT030H.grib2 2026-04-28 08:48 105K
20260428T06Z_MSC_RDPS_DownwardShortwaveRadiationFlux-Accum_Sfc_RLatLon0.09_PT030H.grib2 2026-04-28 08:48 657K
20260428T06Z_MSC_RDPS_FreezingRain-Accum12h_Sfc_RLatLon0.09_PT030H.grib2 2026-04-28 08:48 91K
20260428T06Z_MSC_RDPS_FreezingRain-Accum1h_Sfc_RLatLon0.09_PT030H.grib2 2026-04-28 08:48 43K
20260428T06Z_MSC_RDPS_FreezingRain-Accum24h_Sfc_RLatLon0.09_PT030H.grib2 2026-04-28 08:48 104K
20260428T06Z_MSC_RDPS_FreezingRain-Accum3h_Sfc_RLatLon0.09_PT030H.grib2 2026-04-28 08:48 58K
20260428T06Z_MSC_RDPS_FreezingRain-Accum6h_Sfc_RLatLon0.09_PT030H.grib2 2026-04-28 08:48 77K
20260428T06Z_MSC_RDPS_FreezingRain-Accum_Sfc_RLatLon0.09_PT030H.grib2 2026-04-28 08:48 148K
20260428T06Z_MSC_RDPS_GeopotentialHeight_IsbL-0001_RLatLon0.09_PT030H.grib2 2026-04-28 08:48 314K
20260428T06Z_MSC_RDPS_GeopotentialHeight_IsbL-0005_RLatLon0.09_PT030H.grib2 2026-04-28 08:48 340K
20260428T06Z_MSC_RDPS_GeopotentialHeight_IsbL-0010_RLatLon0.09_PT030H.grib2 2026-04-28 08:48 308K
20260428T06Z_MSC_RDPS_GeopotentialHeight_IsbL-0020_RLatLon0.09_PT030H.grib2 2026-04-28 08:48 307K
20260428T06Z_MSC_RDPS_GeopotentialHeight_IsbL-0030_RLatLon0.09_PT030H.grib2 2026-04-28 08:48 308K
20260428T06Z_MSC_RDPS_GeopotentialHeight_IsbL-0050_RLatLon0.09_PT030H.grib2 2026-04-28 08:48 310K
20260428T06Z_MSC_RDPS_GeopotentialHeight_IsbL-0100_RLatLon0.09_PT030H.grib2 2026-04-28 08:48 288K
20260428T06Z_MSC_RDPS_GeopotentialHeight_IsbL-0150_RLatLon0.09_PT030H.grib2 2026-04-28 08:48 231K
20260428T06Z_MSC_RDPS_GeopotentialHeight_IsbL-0175_RLatLon0.09_PT030H.grib2 2026-04-28 08:48 265K
20260428T06Z_MSC_RDPS_GeopotentialHeight_IsbL-0200_RLatLon0.09_PT030H.grib2 2026-04-28 08:48 268K
20260428T06Z_MSC_RDPS_GeopotentialHeight_IsbL-0225_RLatLon0.09_PT030H.grib2 2026-04-28 08:48 269K
20260428T06Z_MSC_RDPS_GeopotentialHeight_IsbL-0250_RLatLon0.09_PT030H.grib2 2026-04-28 08:48 269K
20260428T06Z_MSC_RDPS_GeopotentialHeight_IsbL-0275_RLatLon0.09_PT030H.grib2 2026-04-28 08:48 268K
20260428T06Z_MSC_RDPS_GeopotentialHeight_IsbL-0300_RLatLon0.09_PT030H.grib2 2026-04-28 08:48 268K
20260428T06Z_MSC_RDPS_GeopotentialHeight_IsbL-0350_RLatLon0.09_PT030H.grib2 2026-04-28 08:48 234K
20260428T06Z_MSC_RDPS_GeopotentialHeight_IsbL-0400_RLatLon0.09_PT030H.grib2 2026-04-28 08:48 229K
20260428T06Z_MSC_RDPS_GeopotentialHeight_IsbL-0450_RLatLon0.09_PT030H.grib2 2026-04-28 08:48 299K
20260428T06Z_MSC_RDPS_GeopotentialHeight_IsbL-0500_RLatLon0.09_PT030H.grib2 2026-04-28 08:48 293K
20260428T06Z_MSC_RDPS_GeopotentialHeight_IsbL-0550_RLatLon0.09_PT030H.grib2 2026-04-28 08:48 288K
20260428T06Z_MSC_RDPS_GeopotentialHeight_IsbL-0600_RLatLon0.09_PT030H.grib2 2026-04-28 08:48 284K
20260428T06Z_MSC_RDPS_GeopotentialHeight_IsbL-0650_RLatLon0.09_PT030H.grib2 2026-04-28 08:48 254K
20260428T06Z_MSC_RDPS_GeopotentialHeight_IsbL-0700_RLatLon0.09_PT030H.grib2 2026-04-28 08:48 253K
20260428T06Z_MSC_RDPS_GeopotentialHeight_IsbL-0750_RLatLon0.09_PT030H.grib2 2026-04-28 08:48 336K
20260428T06Z_MSC_RDPS_GeopotentialHeight_IsbL-0800_RLatLon0.09_PT030H.grib2 2026-04-28 08:48 345K
20260428T06Z_MSC_RDPS_GeopotentialHeight_IsbL-0850_RLatLon0.09_PT030H.grib2 2026-04-28 08:48 356K
20260428T06Z_MSC_RDPS_GeopotentialHeight_IsbL-0875_RLatLon0.09_PT030H.grib2 2026-04-28 08:48 358K
20260428T06Z_MSC_RDPS_GeopotentialHeight_IsbL-0900_RLatLon0.09_PT030H.grib2 2026-04-28 08:48 363K
20260428T06Z_MSC_RDPS_GeopotentialHeight_IsbL-0925_RLatLon0.09_PT030H.grib2 2026-04-28 08:48 365K
20260428T06Z_MSC_RDPS_GeopotentialHeight_IsbL-0950_RLatLon0.09_PT030H.grib2 2026-04-28 08:48 371K
20260428T06Z_MSC_RDPS_GeopotentialHeight_IsbL-0970_RLatLon0.09_PT030H.grib2 2026-04-28 08:48 376K
20260428T06Z_MSC_RDPS_GeopotentialHeight_IsbL-0985_RLatLon0.09_PT030H.grib2 2026-04-28 08:48 384K
20260428T06Z_MSC_RDPS_GeopotentialHeight_IsbL-1000_RLatLon0.09_PT030H.grib2 2026-04-28 08:48 396K
20260428T06Z_MSC_RDPS_GeopotentialHeight_IsbL-1015_RLatLon0.09_PT030H.grib2 2026-04-28 08:48 410K
20260428T06Z_MSC_RDPS_Humidex_Sfc_RLatLon0.09_PT030H.grib2 2026-04-28 08:48 2.4M
20260428T06Z_MSC_RDPS_IcePellets-Accum12h_Sfc_RLatLon0.09_PT030H.grib2 2026-04-28 08:48 11K
20260428T06Z_MSC_RDPS_IcePellets-Accum1h_Sfc_RLatLon0.09_PT030H.grib2 2026-04-28 08:48 6.0K
20260428T06Z_MSC_RDPS_IcePellets-Accum24h_Sfc_RLatLon0.09_PT030H.grib2 2026-04-28 08:48 19K
20260428T06Z_MSC_RDPS_IcePellets-Accum3h_Sfc_RLatLon0.09_PT030H.grib2 2026-04-28 08:48 7.1K
20260428T06Z_MSC_RDPS_IcePellets-Accum6h_Sfc_RLatLon0.09_PT030H.grib2 2026-04-28 08:48 8.9K
20260428T06Z_MSC_RDPS_IcePellets-Accum_Sfc_RLatLon0.09_PT030H.grib2 2026-04-28 08:48 24K
20260428T06Z_MSC_RDPS_KIndex_Sfc_RLatLon0.09_PT030H.grib2 2026-04-28 08:48 2.5M
20260428T06Z_MSC_RDPS_LatentHeatNetFlux_Sfc_RLatLon0.09_PT030H.grib2 2026-04-28 08:48 420K
20260428T06Z_MSC_RDPS_LiftedIndex-MU-VT_IsbL-0500_RLatLon0.09_PT030H.grib2 2026-04-28 08:48 2.4M
20260428T06Z_MSC_RDPS_NetLongwaveRadiationFlux-Accum_Sfc_RLatLon0.09_PT030H.grib2 2026-04-28 08:48 611K
20260428T06Z_MSC_RDPS_NetShortwaveRadiationFlux-Accum_Sfc_RLatLon0.09_PT030H.grib2 2026-04-28 08:48 654K
20260428T06Z_MSC_RDPS_PlanetaryBoundaryLayerHeight_Sfc_RLatLon0.09_PT030H.grib2 2026-04-28 08:48 1.1M
20260428T06Z_MSC_RDPS_Precip-Accum12h_Sfc_RLatLon0.09_PT030H.grib2 2026-04-28 08:48 1.7M
20260428T06Z_MSC_RDPS_Precip-Accum1h_Sfc_RLatLon0.09_PT030H.grib2 2026-04-28 08:48 1.2M
20260428T06Z_MSC_RDPS_Precip-Accum24h_Sfc_RLatLon0.09_PT030H.grib2 2026-04-28 08:48 1.9M
20260428T06Z_MSC_RDPS_Precip-Accum3h_Sfc_RLatLon0.09_PT030H.grib2 2026-04-28 08:48 1.4M
20260428T06Z_MSC_RDPS_Precip-Accum6h_Sfc_RLatLon0.09_PT030H.grib2 2026-04-28 08:48 1.5M
20260428T06Z_MSC_RDPS_Precip-Accum_Sfc_RLatLon0.09_PT030H.grib2 2026-04-28 08:48 1.9M
20260428T06Z_MSC_RDPS_PrecipRate_Sfc_RLatLon0.09_PT030H.grib2 2026-04-28 08:48 186K
20260428T06Z_MSC_RDPS_PrecipType-Instant_Sfc_RLatLon0.09_PT030H.grib2 2026-04-28 08:48 595K
20260428T06Z_MSC_RDPS_Pressure-Trend3h_Sfc_RLatLon0.09_PT030H.grib2 2026-04-28 08:48 1.2M
20260428T06Z_MSC_RDPS_Pressure_MSL_RLatLon0.09_PT030H.grib2 2026-04-28 08:48 294K
20260428T06Z_MSC_RDPS_Pressure_PVU-1.5_RLatLon0.09_PT030H.grib2 2026-04-28 08:48 2.5M
20260428T06Z_MSC_RDPS_Pressure_PVU-1_RLatLon0.09_PT030H.grib2 2026-04-28 08:48 2.4M
20260428T06Z_MSC_RDPS_Pressure_PVU-2_RLatLon0.09_PT030H.grib2 2026-04-28 08:48 2.4M
20260428T06Z_MSC_RDPS_Pressure_Sfc_RLatLon0.09_PT030H.grib2 2026-04-28 08:48 502K
20260428T06Z_MSC_RDPS_RadiativeTemp_Sfc_RLatLon0.09_PT030H.grib2 2026-04-28 08:48 303K
20260428T06Z_MSC_RDPS_Rain-Accum12h_Sfc_RLatLon0.09_PT030H.grib2 2026-04-28 08:48 1.1M
20260428T06Z_MSC_RDPS_Rain-Accum1h_Sfc_RLatLon0.09_PT030H.grib2 2026-04-28 08:48 605K
20260428T06Z_MSC_RDPS_Rain-Accum24h_Sfc_RLatLon0.09_PT030H.grib2 2026-04-28 08:48 1.4M
20260428T06Z_MSC_RDPS_Rain-Accum3h_Sfc_RLatLon0.09_PT030H.grib2 2026-04-28 08:48 723K
20260428T06Z_MSC_RDPS_Rain-Accum6h_Sfc_RLatLon0.09_PT030H.grib2 2026-04-28 08:48 940K
20260428T06Z_MSC_RDPS_Rain-Accum_Sfc_RLatLon0.09_PT030H.grib2 2026-04-28 08:48 1.4M
20260428T06Z_MSC_RDPS_RelativeHumidity_AGL-2m_RLatLon0.09_PT030H.grib2 2026-04-28 08:48 1.0M
20260428T06Z_MSC_RDPS_RelativeHumidity_IsbL-0010_RLatLon0.09_PT030H.grib2 2026-04-28 08:48 645K
20260428T06Z_MSC_RDPS_RelativeHumidity_IsbL-0020_RLatLon0.09_PT030H.grib2 2026-04-28 08:48 651K
20260428T06Z_MSC_RDPS_RelativeHumidity_IsbL-0030_RLatLon0.09_PT030H.grib2 2026-04-28 08:48 610K
20260428T06Z_MSC_RDPS_RelativeHumidity_IsbL-0050_RLatLon0.09_PT030H.grib2 2026-04-28 08:48 327K
20260428T06Z_MSC_RDPS_RelativeHumidity_IsbL-0100_RLatLon0.09_PT030H.grib2 2026-04-28 08:48 286K
20260428T06Z_MSC_RDPS_RelativeHumidity_IsbL-0150_RLatLon0.09_PT030H.grib2 2026-04-28 08:48 416K
20260428T06Z_MSC_RDPS_RelativeHumidity_IsbL-0175_RLatLon0.09_PT030H.grib2 2026-04-28 08:48 481K
20260428T06Z_MSC_RDPS_RelativeHumidity_IsbL-0200_RLatLon0.09_PT030H.grib2 2026-04-28 08:48 552K
20260428T06Z_MSC_RDPS_RelativeHumidity_IsbL-0225_RLatLon0.09_PT030H.grib2 2026-04-28 08:48 620K
20260428T06Z_MSC_RDPS_RelativeHumidity_IsbL-0250_RLatLon0.09_PT030H.grib2 2026-04-28 08:48 689K
20260428T06Z_MSC_RDPS_RelativeHumidity_IsbL-0275_RLatLon0.09_PT030H.grib2 2026-04-28 08:48 722K
20260428T06Z_MSC_RDPS_RelativeHumidity_IsbL-0300_RLatLon0.09_PT030H.grib2 2026-04-28 08:48 770K
20260428T06Z_MSC_RDPS_RelativeHumidity_IsbL-0350_RLatLon0.09_PT030H.grib2 2026-04-28 08:48 788K
20260428T06Z_MSC_RDPS_RelativeHumidity_IsbL-0400_RLatLon0.09_PT030H.grib2 2026-04-28 08:48 802K
20260428T06Z_MSC_RDPS_RelativeHumidity_IsbL-0450_RLatLon0.09_PT030H.grib2 2026-04-28 08:48 803K
20260428T06Z_MSC_RDPS_RelativeHumidity_IsbL-0500_RLatLon0.09_PT030H.grib2 2026-04-28 08:48 810K
20260428T06Z_MSC_RDPS_RelativeHumidity_IsbL-0550_RLatLon0.09_PT030H.grib2 2026-04-28 08:48 822K
20260428T06Z_MSC_RDPS_RelativeHumidity_IsbL-0600_RLatLon0.09_PT030H.grib2 2026-04-28 08:48 845K
20260428T06Z_MSC_RDPS_RelativeHumidity_IsbL-0650_RLatLon0.09_PT030H.grib2 2026-04-28 08:48 844K
20260428T06Z_MSC_RDPS_RelativeHumidity_IsbL-0700_RLatLon0.09_PT030H.grib2 2026-04-28 08:48 867K
20260428T06Z_MSC_RDPS_RelativeHumidity_IsbL-0750_RLatLon0.09_PT030H.grib2 2026-04-28 08:48 909K
20260428T06Z_MSC_RDPS_RelativeHumidity_IsbL-0800_RLatLon0.09_PT030H.grib2 2026-04-28 08:48 1.0M
20260428T06Z_MSC_RDPS_RelativeHumidity_IsbL-0850_RLatLon0.09_PT030H.grib2 2026-04-28 08:48 1.0M
20260428T06Z_MSC_RDPS_RelativeHumidity_IsbL-0875_RLatLon0.09_PT030H.grib2 2026-04-28 08:48 1.0M
20260428T06Z_MSC_RDPS_RelativeHumidity_IsbL-0900_RLatLon0.09_PT030H.grib2 2026-04-28 08:48 1.1M
20260428T06Z_MSC_RDPS_RelativeHumidity_IsbL-0925_RLatLon0.09_PT030H.grib2 2026-04-28 08:48 1.1M
20260428T06Z_MSC_RDPS_RelativeHumidity_IsbL-0950_RLatLon0.09_PT030H.grib2 2026-04-28 08:48 1.1M
20260428T06Z_MSC_RDPS_RelativeHumidity_IsbL-0970_RLatLon0.09_PT030H.grib2 2026-04-28 08:48 1.1M
20260428T06Z_MSC_RDPS_RelativeHumidity_IsbL-0985_RLatLon0.09_PT030H.grib2 2026-04-28 08:48 1.0M
20260428T06Z_MSC_RDPS_RelativeHumidity_IsbL-1000_RLatLon0.09_PT030H.grib2 2026-04-28 08:48 1.0M
20260428T06Z_MSC_RDPS_RelativeHumidity_IsbL-1015_RLatLon0.09_PT030H.grib2 2026-04-28 08:48 1.0M
20260428T06Z_MSC_RDPS_Runoff-Accum_Sfc_RLatLon0.09_PT030H.grib2 2026-04-28 08:48 51K
20260428T06Z_MSC_RDPS_SWEATIndex_Sfc_RLatLon0.09_PT030H.grib2 2026-04-28 08:48 2.4M
20260428T06Z_MSC_RDPS_SeeingIndex_EAtm_RLatLon0.09_PT030H.grib2 2026-04-28 08:48 1.0M
20260428T06Z_MSC_RDPS_SensibleHeatNetFlux_Sfc_RLatLon0.09_PT030H.grib2 2026-04-28 08:48 307K
20260428T06Z_MSC_RDPS_ShowalterIndex_IsbL-0500_RLatLon0.09_PT030H.grib2 2026-04-28 08:48 2.6M
20260428T06Z_MSC_RDPS_SkyTransparencyIndex_EAtm_RLatLon0.09_PT030H.grib2 2026-04-28 08:48 690K
20260428T06Z_MSC_RDPS_Snow-Accum12h_Sfc_RLatLon0.09_PT030H.grib2 2026-04-28 08:48 622K
20260428T06Z_MSC_RDPS_Snow-Accum1h_Sfc_RLatLon0.09_PT030H.grib2 2026-04-28 08:48 459K
20260428T06Z_MSC_RDPS_Snow-Accum24h_Sfc_RLatLon0.09_PT030H.grib2 2026-04-28 08:48 677K
20260428T06Z_MSC_RDPS_Snow-Accum3h_Sfc_RLatLon0.09_PT030H.grib2 2026-04-28 08:48 460K
20260428T06Z_MSC_RDPS_Snow-Accum6h_Sfc_RLatLon0.09_PT030H.grib2 2026-04-28 08:48 566K
20260428T06Z_MSC_RDPS_Snow-Accum_Sfc_RLatLon0.09_PT030H.grib2 2026-04-28 08:48 762K
20260428T06Z_MSC_RDPS_SnowDensity_Sfc_RLatLon0.09_PT030H.grib2 2026-04-28 08:48 182K
20260428T06Z_MSC_RDPS_SnowDepth_Sfc_RLatLon0.09_PT030H.grib2 2026-04-28 08:48 698K
20260428T06Z_MSC_RDPS_SoilTemp_DBS-0to10cm_RLatLon0.09_PT030H.grib2 2026-04-28 08:48 224K
20260428T06Z_MSC_RDPS_SoilTemp_Sfc_RLatLon0.09_PT030H.grib2 2026-04-28 08:48 273K
20260428T06Z_MSC_RDPS_SoilVolumetricIceContent_Sfc_RLatLon0.09_PT030H.grib2 2026-04-28 08:48 168K
20260428T06Z_MSC_RDPS_SoilVolumetricWaterContent_DBS-0to10cm_RLatLon0.09_PT030H.grib2 2026-04-28 08:48 264K
20260428T06Z_MSC_RDPS_SoilVolumetricWaterContent_DBS-0to1cm_RLatLon0.09_PT030H.grib2 2026-04-28 08:48 335K
20260428T06Z_MSC_RDPS_SpecificHumidity_AGL-120m_RLatLon0.09_PT030H.grib2 2026-04-28 08:48 486K
20260428T06Z_MSC_RDPS_SpecificHumidity_AGL-2m_RLatLon0.09_PT030H.grib2 2026-04-28 08:48 652K
20260428T06Z_MSC_RDPS_SpecificHumidity_AGL-40m_RLatLon0.09_PT030H.grib2 2026-04-28 08:48 492K
20260428T06Z_MSC_RDPS_SpecificHumidity_AGL-80m_RLatLon0.09_PT030H.grib2 2026-04-28 08:48 489K
20260428T06Z_MSC_RDPS_SpecificHumidity_IsbL-0001_RLatLon0.09_PT030H.grib2 2026-04-28 08:48 339K
20260428T06Z_MSC_RDPS_SpecificHumidity_IsbL-0005_RLatLon0.09_PT030H.grib2 2026-04-28 08:48 361K
20260428T06Z_MSC_RDPS_SpecificHumidity_IsbL-0010_RLatLon0.09_PT030H.grib2 2026-04-28 08:48 400K
20260428T06Z_MSC_RDPS_SpecificHumidity_IsbL-0020_RLatLon0.09_PT030H.grib2 2026-04-28 08:48 390K
20260428T06Z_MSC_RDPS_SpecificHumidity_IsbL-0030_RLatLon0.09_PT030H.grib2 2026-04-28 08:48 373K
20260428T06Z_MSC_RDPS_SpecificHumidity_IsbL-0050_RLatLon0.09_PT030H.grib2 2026-04-28 08:48 463K
20260428T06Z_MSC_RDPS_SpecificHumidity_IsbL-0100_RLatLon0.09_PT030H.grib2 2026-04-28 08:48 431K
20260428T06Z_MSC_RDPS_SpecificHumidity_IsbL-0150_RLatLon0.09_PT030H.grib2 2026-04-28 08:48 483K
20260428T06Z_MSC_RDPS_SpecificHumidity_IsbL-0175_RLatLon0.09_PT030H.grib2 2026-04-28 08:48 540K
20260428T06Z_MSC_RDPS_SpecificHumidity_IsbL-0200_RLatLon0.09_PT030H.grib2 2026-04-28 08:48 450K
20260428T06Z_MSC_RDPS_SpecificHumidity_IsbL-0225_RLatLon0.09_PT030H.grib2 2026-04-28 08:48 452K
20260428T06Z_MSC_RDPS_SpecificHumidity_IsbL-0250_RLatLon0.09_PT030H.grib2 2026-04-28 08:48 555K
20260428T06Z_MSC_RDPS_SpecificHumidity_IsbL-0275_RLatLon0.09_PT030H.grib2 2026-04-28 08:48 473K
20260428T06Z_MSC_RDPS_SpecificHumidity_IsbL-0300_RLatLon0.09_PT030H.grib2 2026-04-28 08:48 574K
20260428T06Z_MSC_RDPS_SpecificHumidity_IsbL-0350_RLatLon0.09_PT030H.grib2 2026-04-28 08:48 567K
20260428T06Z_MSC_RDPS_SpecificHumidity_IsbL-0400_RLatLon0.09_PT030H.grib2 2026-04-28 08:48 524K
20260428T06Z_MSC_RDPS_SpecificHumidity_IsbL-0450_RLatLon0.09_PT030H.grib2 2026-04-28 08:48 574K
20260428T06Z_MSC_RDPS_SpecificHumidity_IsbL-0500_RLatLon0.09_PT030H.grib2 2026-04-28 08:48 511K
20260428T06Z_MSC_RDPS_SpecificHumidity_IsbL-0550_RLatLon0.09_PT030H.grib2 2026-04-28 08:48 581K
20260428T06Z_MSC_RDPS_SpecificHumidity_IsbL-0600_RLatLon0.09_PT030H.grib2 2026-04-28 08:48 631K
20260428T06Z_MSC_RDPS_SpecificHumidity_IsbL-0650_RLatLon0.09_PT030H.grib2 2026-04-28 08:48 546K
20260428T06Z_MSC_RDPS_SpecificHumidity_IsbL-0700_RLatLon0.09_PT030H.grib2 2026-04-28 08:48 587K
20260428T06Z_MSC_RDPS_SpecificHumidity_IsbL-0750_RLatLon0.09_PT030H.grib2 2026-04-28 08:48 638K
20260428T06Z_MSC_RDPS_SpecificHumidity_IsbL-0800_RLatLon0.09_PT030H.grib2 2026-04-28 08:48 708K
20260428T06Z_MSC_RDPS_SpecificHumidity_IsbL-0850_RLatLon0.09_PT030H.grib2 2026-04-28 08:48 792K
20260428T06Z_MSC_RDPS_SpecificHumidity_IsbL-0875_RLatLon0.09_PT030H.grib2 2026-04-28 08:48 816K
20260428T06Z_MSC_RDPS_SpecificHumidity_IsbL-0900_RLatLon0.09_PT030H.grib2 2026-04-28 08:48 826K
20260428T06Z_MSC_RDPS_SpecificHumidity_IsbL-0925_RLatLon0.09_PT030H.grib2 2026-04-28 08:48 830K
20260428T06Z_MSC_RDPS_SpecificHumidity_IsbL-0950_RLatLon0.09_PT030H.grib2 2026-04-28 08:48 834K
20260428T06Z_MSC_RDPS_SpecificHumidity_IsbL-0970_RLatLon0.09_PT030H.grib2 2026-04-28 08:48 825K
20260428T06Z_MSC_RDPS_SpecificHumidity_IsbL-0985_RLatLon0.09_PT030H.grib2 2026-04-28 08:48 816K
20260428T06Z_MSC_RDPS_SpecificHumidity_IsbL-1000_RLatLon0.09_PT030H.grib2 2026-04-28 08:48 810K
20260428T06Z_MSC_RDPS_SpecificHumidity_IsbL-1015_RLatLon0.09_PT030H.grib2 2026-04-28 08:48 663K
20260428T06Z_MSC_RDPS_SpecificHumidity_Sfc_RLatLon0.09_PT030H.grib2 2026-04-28 08:48 291K
20260428T06Z_MSC_RDPS_StormRelativeHelicity_EtaL-10000_RLatLon0.09_PT030H.grib2 2026-04-28 08:48 1.1M
20260428T06Z_MSC_RDPS_StormSeverityIndex_EtaL-10000_RLatLon0.09_PT030H.grib2 2026-04-28 08:48 1.2M
20260428T06Z_MSC_RDPS_Thickness_IsbL-0850to0700_RLatLon0.09_PT030H.grib2 2026-04-28 08:48 177K
20260428T06Z_MSC_RDPS_Thickness_IsbL-1000to0500_RLatLon0.09_PT030H.grib2 2026-04-28 08:48 199K
20260428T06Z_MSC_RDPS_Thickness_IsbL-1000to0850_RLatLon0.09_PT030H.grib2 2026-04-28 08:48 262K
20260428T06Z_MSC_RDPS_TotalCloudCover_Sfc_RLatLon0.09_PT030H.grib2 2026-04-28 08:48 661K
20260428T06Z_MSC_RDPS_TotalTotalsIndex_Sfc_RLatLon0.09_PT030H.grib2 2026-04-28 08:48 2.4M
20260428T06Z_MSC_RDPS_UVIndex-ClearSky_Sfc_RLatLon0.09_PT030H.grib2 2026-04-28 08:48 142K
20260428T06Z_MSC_RDPS_UVIndex_Sfc_RLatLon0.09_PT030H.grib2 2026-04-28 08:48 332K
20260428T06Z_MSC_RDPS_UpwardLongwaveRadiationFlux_NTAtm_RLatLon0.09_PT030H.grib2 2026-04-28 08:48 492K
20260428T06Z_MSC_RDPS_UpwardShortwaveRadiationFlux_NTAtm_RLatLon0.09_PT030H.grib2 2026-04-28 08:48 298K
20260428T06Z_MSC_RDPS_VerticalVelocity_IsbL-0250_RLatLon0.09_PT030H.grib2 2026-04-28 08:48 460K
20260428T06Z_MSC_RDPS_VerticalVelocity_IsbL-0500_RLatLon0.09_PT030H.grib2 2026-04-28 08:48 549K
20260428T06Z_MSC_RDPS_VerticalVelocity_IsbL-0700_RLatLon0.09_PT030H.grib2 2026-04-28 08:48 589K
20260428T06Z_MSC_RDPS_VerticalVelocity_IsbL-0850_RLatLon0.09_PT030H.grib2 2026-04-28 08:48 688K
20260428T06Z_MSC_RDPS_VerticalWindShear_EtaL-6500_RLatLon0.09_PT030H.grib2 2026-04-28 08:48 1.2M
20260428T06Z_MSC_RDPS_WindChill_Sfc_RLatLon0.09_PT030H.grib2 2026-04-28 08:48 1.1M
20260428T06Z_MSC_RDPS_WindDir_AGL-10m_RLatLon0.09_PT030H.grib2 2026-04-28 08:48 1.0M
20260428T06Z_MSC_RDPS_WindDir_AGL-120m_RLatLon0.09_PT030H.grib2 2026-04-28 08:48 615K
20260428T06Z_MSC_RDPS_WindDir_AGL-40m_RLatLon0.09_PT030H.grib2 2026-04-28 08:48 645K
20260428T06Z_MSC_RDPS_WindDir_AGL-80m_RLatLon0.09_PT030H.grib2 2026-04-28 08:48 626K
20260428T06Z_MSC_RDPS_WindDir_IsbL-0001_RLatLon0.09_PT030H.grib2 2026-04-28 08:48 310K
20260428T06Z_MSC_RDPS_WindDir_IsbL-0005_RLatLon0.09_PT030H.grib2 2026-04-28 08:48 370K
20260428T06Z_MSC_RDPS_WindDir_IsbL-0010_RLatLon0.09_PT030H.grib2 2026-04-28 08:48 380K
20260428T06Z_MSC_RDPS_WindDir_IsbL-0020_RLatLon0.09_PT030H.grib2 2026-04-28 08:48 398K
20260428T06Z_MSC_RDPS_WindDir_IsbL-0030_RLatLon0.09_PT030H.grib2 2026-04-28 08:48 414K
20260428T06Z_MSC_RDPS_WindDir_IsbL-0050_RLatLon0.09_PT030H.grib2 2026-04-28 08:48 440K
20260428T06Z_MSC_RDPS_WindDir_IsbL-0100_RLatLon0.09_PT030H.grib2 2026-04-28 08:48 426K
20260428T06Z_MSC_RDPS_WindDir_IsbL-0150_RLatLon0.09_PT030H.grib2 2026-04-28 08:48 417K
20260428T06Z_MSC_RDPS_WindDir_IsbL-0175_RLatLon0.09_PT030H.grib2 2026-04-28 08:48 438K
20260428T06Z_MSC_RDPS_WindDir_IsbL-0200_RLatLon0.09_PT030H.grib2 2026-04-28 08:48 450K
20260428T06Z_MSC_RDPS_WindDir_IsbL-0225_RLatLon0.09_PT030H.grib2 2026-04-28 08:48 451K
20260428T06Z_MSC_RDPS_WindDir_IsbL-0250_RLatLon0.09_PT030H.grib2 2026-04-28 08:48 457K
20260428T06Z_MSC_RDPS_WindDir_IsbL-0275_RLatLon0.09_PT030H.grib2 2026-04-28 08:48 481K
20260428T06Z_MSC_RDPS_WindDir_IsbL-0300_RLatLon0.09_PT030H.grib2 2026-04-28 08:48 480K
20260428T06Z_MSC_RDPS_WindDir_IsbL-0350_RLatLon0.09_PT030H.grib2 2026-04-28 08:48 502K
20260428T06Z_MSC_RDPS_WindDir_IsbL-0400_RLatLon0.09_PT030H.grib2 2026-04-28 08:48 521K
20260428T06Z_MSC_RDPS_WindDir_IsbL-0450_RLatLon0.09_PT030H.grib2 2026-04-28 08:48 532K
20260428T06Z_MSC_RDPS_WindDir_IsbL-0500_RLatLon0.09_PT030H.grib2 2026-04-28 08:48 545K
20260428T06Z_MSC_RDPS_WindDir_IsbL-0550_RLatLon0.09_PT030H.grib2 2026-04-28 08:48 560K
20260428T06Z_MSC_RDPS_WindDir_IsbL-0600_RLatLon0.09_PT030H.grib2 2026-04-28 08:48 586K
20260428T06Z_MSC_RDPS_WindDir_IsbL-0650_RLatLon0.09_PT030H.grib2 2026-04-28 08:48 622K
20260428T06Z_MSC_RDPS_WindDir_IsbL-0700_RLatLon0.09_PT030H.grib2 2026-04-28 08:48 665K
20260428T06Z_MSC_RDPS_WindDir_IsbL-0750_RLatLon0.09_PT030H.grib2 2026-04-28 08:48 713K
20260428T06Z_MSC_RDPS_WindDir_IsbL-0800_RLatLon0.09_PT030H.grib2 2026-04-28 08:48 777K
20260428T06Z_MSC_RDPS_WindDir_IsbL-0850_RLatLon0.09_PT030H.grib2 2026-04-28 08:48 855K
20260428T06Z_MSC_RDPS_WindDir_IsbL-0875_RLatLon0.09_PT030H.grib2 2026-04-28 08:48 883K
20260428T06Z_MSC_RDPS_WindDir_IsbL-0900_RLatLon0.09_PT030H.grib2 2026-04-28 08:48 902K
20260428T06Z_MSC_RDPS_WindDir_IsbL-0925_RLatLon0.09_PT030H.grib2 2026-04-28 08:48 911K
20260428T06Z_MSC_RDPS_WindDir_IsbL-0950_RLatLon0.09_PT030H.grib2 2026-04-28 08:48 914K
20260428T06Z_MSC_RDPS_WindDir_IsbL-0970_RLatLon0.09_PT030H.grib2 2026-04-28 08:48 925K
20260428T06Z_MSC_RDPS_WindDir_IsbL-0985_RLatLon0.09_PT030H.grib2 2026-04-28 08:48 936K
20260428T06Z_MSC_RDPS_WindDir_IsbL-1000_RLatLon0.09_PT030H.grib2 2026-04-28 08:48 952K
20260428T06Z_MSC_RDPS_WindDir_IsbL-1015_RLatLon0.09_PT030H.grib2 2026-04-28 08:48 969K
20260428T06Z_MSC_RDPS_WindGust-Max_AGL-10m_RLatLon0.09_PT030H.grib2 2026-04-28 08:48 952K
20260428T06Z_MSC_RDPS_WindGust-Min_AGL-10m_RLatLon0.09_PT030H.grib2 2026-04-28 08:48 1.0M
20260428T06Z_MSC_RDPS_WindGust_AGL-10m_RLatLon0.09_PT030H.grib2 2026-04-28 08:48 1.0M
20260428T06Z_MSC_RDPS_WindSpeed_AGL-10m_RLatLon0.09_PT030H.grib2 2026-04-28 08:48 845K
20260428T06Z_MSC_RDPS_WindSpeed_AGL-120m_RLatLon0.09_PT030H.grib2 2026-04-28 08:48 556K
20260428T06Z_MSC_RDPS_WindSpeed_AGL-40m_RLatLon0.09_PT030H.grib2 2026-04-28 08:48 558K
20260428T06Z_MSC_RDPS_WindSpeed_AGL-80m_RLatLon0.09_PT030H.grib2 2026-04-28 08:48 557K
20260428T06Z_MSC_RDPS_WindSpeed_IsbL-0001_RLatLon0.09_PT030H.grib2 2026-04-28 08:48 336K
20260428T06Z_MSC_RDPS_WindSpeed_IsbL-0005_RLatLon0.09_PT030H.grib2 2026-04-28 08:48 299K
20260428T06Z_MSC_RDPS_WindSpeed_IsbL-0010_RLatLon0.09_PT030H.grib2 2026-04-28 08:48 310K
20260428T06Z_MSC_RDPS_WindSpeed_IsbL-0020_RLatLon0.09_PT030H.grib2 2026-04-28 08:48 326K
20260428T06Z_MSC_RDPS_WindSpeed_IsbL-0030_RLatLon0.09_PT030H.grib2 2026-04-28 08:48 323K
20260428T06Z_MSC_RDPS_WindSpeed_IsbL-0050_RLatLon0.09_PT030H.grib2 2026-04-28 08:48 460K
20260428T06Z_MSC_RDPS_WindSpeed_IsbL-0100_RLatLon0.09_PT030H.grib2 2026-04-28 08:48 450K
20260428T06Z_MSC_RDPS_WindSpeed_IsbL-0150_RLatLon0.09_PT030H.grib2 2026-04-28 08:48 389K
20260428T06Z_MSC_RDPS_WindSpeed_IsbL-0175_RLatLon0.09_PT030H.grib2 2026-04-28 08:48 434K
20260428T06Z_MSC_RDPS_WindSpeed_IsbL-0200_RLatLon0.09_PT030H.grib2 2026-04-28 08:48 453K
20260428T06Z_MSC_RDPS_WindSpeed_IsbL-0225_RLatLon0.09_PT030H.grib2 2026-04-28 08:48 457K
20260428T06Z_MSC_RDPS_WindSpeed_IsbL-0250_RLatLon0.09_PT030H.grib2 2026-04-28 08:48 461K
20260428T06Z_MSC_RDPS_WindSpeed_IsbL-0275_RLatLon0.09_PT030H.grib2 2026-04-28 08:48 481K
20260428T06Z_MSC_RDPS_WindSpeed_IsbL-0300_RLatLon0.09_PT030H.grib2 2026-04-28 08:48 479K
20260428T06Z_MSC_RDPS_WindSpeed_IsbL-0350_RLatLon0.09_PT030H.grib2 2026-04-28 08:48 491K
20260428T06Z_MSC_RDPS_WindSpeed_IsbL-0400_RLatLon0.09_PT030H.grib2 2026-04-28 08:48 473K
20260428T06Z_MSC_RDPS_WindSpeed_IsbL-0450_RLatLon0.09_PT030H.grib2 2026-04-28 08:48 472K
20260428T06Z_MSC_RDPS_WindSpeed_IsbL-0500_RLatLon0.09_PT030H.grib2 2026-04-28 08:48 469K
20260428T06Z_MSC_RDPS_WindSpeed_IsbL-0550_RLatLon0.09_PT030H.grib2 2026-04-28 08:48 467K
20260428T06Z_MSC_RDPS_WindSpeed_IsbL-0600_RLatLon0.09_PT030H.grib2 2026-04-28 08:48 592K
20260428T06Z_MSC_RDPS_WindSpeed_IsbL-0650_RLatLon0.09_PT030H.grib2 2026-04-28 08:48 611K
20260428T06Z_MSC_RDPS_WindSpeed_IsbL-0700_RLatLon0.09_PT030H.grib2 2026-04-28 08:48 631K
20260428T06Z_MSC_RDPS_WindSpeed_IsbL-0750_RLatLon0.09_PT030H.grib2 2026-04-28 08:48 659K
20260428T06Z_MSC_RDPS_WindSpeed_IsbL-0800_RLatLon0.09_PT030H.grib2 2026-04-28 08:48 707K
20260428T06Z_MSC_RDPS_WindSpeed_IsbL-0850_RLatLon0.09_PT030H.grib2 2026-04-28 08:48 766K
20260428T06Z_MSC_RDPS_WindSpeed_IsbL-0875_RLatLon0.09_PT030H.grib2 2026-04-28 08:48 833K
20260428T06Z_MSC_RDPS_WindSpeed_IsbL-0900_RLatLon0.09_PT030H.grib2 2026-04-28 08:48 848K
20260428T06Z_MSC_RDPS_WindSpeed_IsbL-0925_RLatLon0.09_PT030H.grib2 2026-04-28 08:48 859K
20260428T06Z_MSC_RDPS_WindSpeed_IsbL-0950_RLatLon0.09_PT030H.grib2 2026-04-28 08:48 862K
20260428T06Z_MSC_RDPS_WindSpeed_IsbL-0970_RLatLon0.09_PT030H.grib2 2026-04-28 08:48 863K
20260428T06Z_MSC_RDPS_WindSpeed_IsbL-0985_RLatLon0.09_PT030H.grib2 2026-04-28 08:48 856K
20260428T06Z_MSC_RDPS_WindSpeed_IsbL-1000_RLatLon0.09_PT030H.grib2 2026-04-28 08:48 853K
20260428T06Z_MSC_RDPS_WindSpeed_IsbL-1015_RLatLon0.09_PT030H.grib2 2026-04-28 08:48 843K
20260428T06Z_MSC_RDPS_WindU_AGL-10m_RLatLon0.09_PT030H.grib2 2026-04-28 08:48 434K
20260428T06Z_MSC_RDPS_WindU_AGL-120m_RLatLon0.09_PT030H.grib2 2026-04-28 08:48 422K
20260428T06Z_MSC_RDPS_WindU_AGL-40m_RLatLon0.09_PT030H.grib2 2026-04-28 08:48 425K
20260428T06Z_MSC_RDPS_WindU_AGL-80m_RLatLon0.09_PT030H.grib2 2026-04-28 08:48 424K
20260428T06Z_MSC_RDPS_WindU_IsbL-0001_RLatLon0.09_PT030H.grib2 2026-04-28 08:48 295K
20260428T06Z_MSC_RDPS_WindU_IsbL-0005_RLatLon0.09_PT030H.grib2 2026-04-28 08:48 290K
20260428T06Z_MSC_RDPS_WindU_IsbL-0010_RLatLon0.09_PT030H.grib2 2026-04-28 08:48 301K
20260428T06Z_MSC_RDPS_WindU_IsbL-0020_RLatLon0.09_PT030H.grib2 2026-04-28 08:48 316K
20260428T06Z_MSC_RDPS_WindU_IsbL-0030_RLatLon0.09_PT030H.grib2 2026-04-28 08:48 315K
20260428T06Z_MSC_RDPS_WindU_IsbL-0050_RLatLon0.09_PT030H.grib2 2026-04-28 08:48 383K
20260428T06Z_MSC_RDPS_WindU_IsbL-0100_RLatLon0.09_PT030H.grib2 2026-04-28 08:48 344K
20260428T06Z_MSC_RDPS_WindU_IsbL-0150_RLatLon0.09_PT030H.grib2 2026-04-28 08:48 404K
20260428T06Z_MSC_RDPS_WindU_IsbL-0175_RLatLon0.09_PT030H.grib2 2026-04-28 08:48 427K
20260428T06Z_MSC_RDPS_WindU_IsbL-0200_RLatLon0.09_PT030H.grib2 2026-04-28 08:48 443K
20260428T06Z_MSC_RDPS_WindU_IsbL-0225_RLatLon0.09_PT030H.grib2 2026-04-28 08:48 347K
20260428T06Z_MSC_RDPS_WindU_IsbL-0250_RLatLon0.09_PT030H.grib2 2026-04-28 08:48 349K
20260428T06Z_MSC_RDPS_WindU_IsbL-0275_RLatLon0.09_PT030H.grib2 2026-04-28 08:48 366K
20260428T06Z_MSC_RDPS_WindU_IsbL-0300_RLatLon0.09_PT030H.grib2 2026-04-28 08:48 466K
20260428T06Z_MSC_RDPS_WindU_IsbL-0350_RLatLon0.09_PT030H.grib2 2026-04-28 08:48 477K
20260428T06Z_MSC_RDPS_WindU_IsbL-0400_RLatLon0.09_PT030H.grib2 2026-04-28 08:48 477K
20260428T06Z_MSC_RDPS_WindU_IsbL-0450_RLatLon0.09_PT030H.grib2 2026-04-28 08:48 474K
20260428T06Z_MSC_RDPS_WindU_IsbL-0500_RLatLon0.09_PT030H.grib2 2026-04-28 08:48 472K
20260428T06Z_MSC_RDPS_WindU_IsbL-0550_RLatLon0.09_PT030H.grib2 2026-04-28 08:48 471K
20260428T06Z_MSC_RDPS_WindU_IsbL-0600_RLatLon0.09_PT030H.grib2 2026-04-28 08:48 461K
20260428T06Z_MSC_RDPS_WindU_IsbL-0650_RLatLon0.09_PT030H.grib2 2026-04-28 08:48 478K
20260428T06Z_MSC_RDPS_WindU_IsbL-0700_RLatLon0.09_PT030H.grib2 2026-04-28 08:48 499K
20260428T06Z_MSC_RDPS_WindU_IsbL-0750_RLatLon0.09_PT030H.grib2 2026-04-28 08:48 525K
20260428T06Z_MSC_RDPS_WindU_IsbL-0800_RLatLon0.09_PT030H.grib2 2026-04-28 08:48 568K
20260428T06Z_MSC_RDPS_WindU_IsbL-0850_RLatLon0.09_PT030H.grib2 2026-04-28 08:48 622K
20260428T06Z_MSC_RDPS_WindU_IsbL-0875_RLatLon0.09_PT030H.grib2 2026-04-28 08:48 641K
20260428T06Z_MSC_RDPS_WindU_IsbL-0900_RLatLon0.09_PT030H.grib2 2026-04-28 08:48 651K
20260428T06Z_MSC_RDPS_WindU_IsbL-0925_RLatLon0.09_PT030H.grib2 2026-04-28 08:48 658K
20260428T06Z_MSC_RDPS_WindU_IsbL-0950_RLatLon0.09_PT030H.grib2 2026-04-28 08:48 655K
20260428T06Z_MSC_RDPS_WindU_IsbL-0970_RLatLon0.09_PT030H.grib2 2026-04-28 08:48 655K
20260428T06Z_MSC_RDPS_WindU_IsbL-0985_RLatLon0.09_PT030H.grib2 2026-04-28 08:48 651K
20260428T06Z_MSC_RDPS_WindU_IsbL-1000_RLatLon0.09_PT030H.grib2 2026-04-28 08:48 788K
20260428T06Z_MSC_RDPS_WindU_IsbL-1015_RLatLon0.09_PT030H.grib2 2026-04-28 08:48 783K
20260428T06Z_MSC_RDPS_WindV_AGL-10m_RLatLon0.09_PT030H.grib2 2026-04-28 08:48 435K
20260428T06Z_MSC_RDPS_WindV_AGL-120m_RLatLon0.09_PT030H.grib2 2026-04-28 08:48 539K
20260428T06Z_MSC_RDPS_WindV_AGL-40m_RLatLon0.09_PT030H.grib2 2026-04-28 08:48 541K
20260428T06Z_MSC_RDPS_WindV_AGL-80m_RLatLon0.09_PT030H.grib2 2026-04-28 08:48 540K
20260428T06Z_MSC_RDPS_WindV_IsbL-0001_RLatLon0.09_PT030H.grib2 2026-04-28 08:48 294K
20260428T06Z_MSC_RDPS_WindV_IsbL-0005_RLatLon0.09_PT030H.grib2 2026-04-28 08:48 290K
20260428T06Z_MSC_RDPS_WindV_IsbL-0010_RLatLon0.09_PT030H.grib2 2026-04-28 08:48 302K
20260428T06Z_MSC_RDPS_WindV_IsbL-0020_RLatLon0.09_PT030H.grib2 2026-04-28 08:48 358K
20260428T06Z_MSC_RDPS_WindV_IsbL-0030_RLatLon0.09_PT030H.grib2 2026-04-28 08:48 319K
20260428T06Z_MSC_RDPS_WindV_IsbL-0050_RLatLon0.09_PT030H.grib2 2026-04-28 08:48 348K
20260428T06Z_MSC_RDPS_WindV_IsbL-0100_RLatLon0.09_PT030H.grib2 2026-04-28 08:48 339K
20260428T06Z_MSC_RDPS_WindV_IsbL-0150_RLatLon0.09_PT030H.grib2 2026-04-28 08:48 402K
20260428T06Z_MSC_RDPS_WindV_IsbL-0175_RLatLon0.09_PT030H.grib2 2026-04-28 08:48 426K
20260428T06Z_MSC_RDPS_WindV_IsbL-0200_RLatLon0.09_PT030H.grib2 2026-04-28 08:48 343K
20260428T06Z_MSC_RDPS_WindV_IsbL-0225_RLatLon0.09_PT030H.grib2 2026-04-28 08:48 371K
20260428T06Z_MSC_RDPS_WindV_IsbL-0250_RLatLon0.09_PT030H.grib2 2026-04-28 08:48 373K
20260428T06Z_MSC_RDPS_WindV_IsbL-0275_RLatLon0.09_PT030H.grib2 2026-04-28 08:48 388K
20260428T06Z_MSC_RDPS_WindV_IsbL-0300_RLatLon0.09_PT030H.grib2 2026-04-28 08:48 385K
20260428T06Z_MSC_RDPS_WindV_IsbL-0350_RLatLon0.09_PT030H.grib2 2026-04-28 08:48 370K
20260428T06Z_MSC_RDPS_WindV_IsbL-0400_RLatLon0.09_PT030H.grib2 2026-04-28 08:48 372K
20260428T06Z_MSC_RDPS_WindV_IsbL-0450_RLatLon0.09_PT030H.grib2 2026-04-28 08:48 476K
20260428T06Z_MSC_RDPS_WindV_IsbL-0500_RLatLon0.09_PT030H.grib2 2026-04-28 08:48 472K
20260428T06Z_MSC_RDPS_WindV_IsbL-0550_RLatLon0.09_PT030H.grib2 2026-04-28 08:48 471K
20260428T06Z_MSC_RDPS_WindV_IsbL-0600_RLatLon0.09_PT030H.grib2 2026-04-28 08:48 476K
20260428T06Z_MSC_RDPS_WindV_IsbL-0650_RLatLon0.09_PT030H.grib2 2026-04-28 08:48 493K
20260428T06Z_MSC_RDPS_WindV_IsbL-0700_RLatLon0.09_PT030H.grib2 2026-04-28 08:48 510K
20260428T06Z_MSC_RDPS_WindV_IsbL-0750_RLatLon0.09_PT030H.grib2 2026-04-28 08:48 534K
20260428T06Z_MSC_RDPS_WindV_IsbL-0800_RLatLon0.09_PT030H.grib2 2026-04-28 08:48 575K
20260428T06Z_MSC_RDPS_WindV_IsbL-0850_RLatLon0.09_PT030H.grib2 2026-04-28 08:48 618K
20260428T06Z_MSC_RDPS_WindV_IsbL-0875_RLatLon0.09_PT030H.grib2 2026-04-28 08:48 636K
20260428T06Z_MSC_RDPS_WindV_IsbL-0900_RLatLon0.09_PT030H.grib2 2026-04-28 08:48 648K
20260428T06Z_MSC_RDPS_WindV_IsbL-0925_RLatLon0.09_PT030H.grib2 2026-04-28 08:48 657K
20260428T06Z_MSC_RDPS_WindV_IsbL-0950_RLatLon0.09_PT030H.grib2 2026-04-28 08:48 657K
20260428T06Z_MSC_RDPS_WindV_IsbL-0970_RLatLon0.09_PT030H.grib2 2026-04-28 08:48 798K
20260428T06Z_MSC_RDPS_WindV_IsbL-0985_RLatLon0.09_PT030H.grib2 2026-04-28 08:48 794K
20260428T06Z_MSC_RDPS_WindV_IsbL-1000_RLatLon0.09_PT030H.grib2 2026-04-28 08:48 836K
20260428T06Z_MSC_RDPS_WindV_IsbL-1015_RLatLon0.09_PT030H.grib2 2026-04-28 08:48 829K